Evansville Regional Airport
KEVV : now visible

Airfield :











YOU CAN JOIN US ON...

 
LOGIN :

Register | Disclaimer

   EN    FR    IT 

 









Legend :    VFR   Marginal VFR   IFR   Intensive IFR   Very Intensive IFR
Visi :
Ceiling :
>= 8 km
>= 3000ft
5 to 8 km
1000 to 3000 ft
1500m to 5 km
500 to 1000 ft
800 to 1500m
200 to 500 ft
< 800m
< 200 ft
Symbols :   Thunderstorms  Fog  Heavy snow  Heavy precipitations  Wind > 20 kt






- Airport Elevation : 418 ft
- IATA code : EVV


KEVV - Evansville Regional

CURRENT METAR :
  • 241354Z VRB05KT 10SM CLR 07/01 A3024 RMK AO2 SLP241 T00670011

EXPIRED METARs :
  • 241254Z 10004KT 10SM CLR 06/01 A3025 RMK AO2 SLP245 T00610006 $
  • 241154Z AUTO 10004KT 10SM CLR 06/01 A3026 RMK AO2 SLP247 T00610011 10067 20061 55006 $

TAF KEVV
Valid from the 24 at 12:00 until the 25 at 12:00 UTC


241120Z 2412/2512 11005KT P6SM BKN150
FM241400 15008KT P6SM BKN250
FM250400 17009KT P6SM BKN070 WS020/19045KT
FM250700 17008KT 6SM -RA BR OVC050 WS020/19045KT
KZID FIR / North America



MET'MAP, your aeronautical weather chart ! - Copyright ORBIFLY December 2007 - Disclaimer

ORBIFLY MET'MAP TEAM :

Programming & Development : Alexandra Zaïnal
Concept & original design : Baudouin d'Aumeries
Assistance for programming : Marc-Olivier Méhu
Technical & hardware support : Manuel Goepfert

Contact : metmap@orbifly.com




SOURCES & CREDITS :

   NOAA       Earth
Advisory